STARLINK-34626, 65082

Orbit data source: Space-Track

STARLINK-34626, 65082 is a payload satellite owned by SpaceX/Seattle (US) in LEO that was launched on Mon, 04 Aug 2025 UTC via an FALCON 9 launch vehicle from the Air Force Eastern Test Range (AFETR). Payload-class satellites include a variety of spacecraft equipped with specific instruments for various scientific and technological missions. These include communications satellites like Starlink; space stations such as the ISS; scientific satellites like the Hubble; Earth observation satellites from companies like Planet Labs, Umbra, and HawkEye 360; GPS; miniature CubeSats for education and research; and military/defense satellites.

Loading next visibility...
Identifier
65082, 2025-167E
Orbit
LEO
Country
Flag of USUS
Related business
Manufacturer
SpaceX/Seattle
Mission
Operational spacecraft
Bus & Motor
STARLINK V2MO, Unknown motor
Mass
575 kg wet, ~530 kg dry
Launch date (UTC)
2025-08-04 (1 month ago)
Launch vehicle
FALCON 9
Launch site
Air Force Eastern Test Range (AFETR)
Object type
Payload
Rocket body
Debris
Shape & HBR
Unknown
Radar Cross Section
Large (>1 m²)

Expand to show TLE details & history
Last TLE update: 10 hours ago

TLE from 10 hours ago
0 STARLINK-34626
1 65082U 25167E   25243.17934291  .00052921  00000-0  13232-2 0  9996
2 65082  53.1606 197.1954 0001596  69.6023 290.5153 15.39634214  4239
Epoch: 2025-08-31T04:18Z
TLE epoch observation values (Epoch: 2025-08-31T04:18:15.227Z)
Latitude
-0.00004°
Longitude
153.02893°
Altitude
447.712 km
Speed
7.645 km/s
True Right ascension
13h 08m 46s
True Declination
0° 00' 00"
Sunlit
Object was in daylight at epoch
Visualization orbit readout
Latitude
Unknown
Longitude
Unknown
Altitude
Unknown
Speed
Unknown
Apparent Right ascension
Unknown
Apparent Declination
Unknown
Sunlit
N/A
Visualization observer readout
Local Sidereal Time
06:15:15
Azimuth
Unknown
Elevation
Unknown
Doppler factor
Unknown
Orbital elements
Apogee altitude
448.537 km
Perigee altitude
446.358 km
Semi-major axis
6,825.584 km
Eccentricity
0.00016
Inclination
53.1606°
RAAN
197.1954°
Arg. of periapsis
69.6023°
True anomaly
290.49817°
Mean anomaly
290.5153°
Eccentric anomaly
290.50674°
Mean motion
3.84887 °/min
Orbital period
93.53 mins
BSTAR
0.0013232
Loading maneuver chart data...
Computing Atmospheric mass density...
Loading historical data...
Loading historical data...
Loading historical data...
Loading historical data...
Loading historical data...
Loading historical data...
Loading historical data...

Documentation

Showing up to 5 results
|